Location: Newark
(49.4900°N, 20.6656°E)
Time: 16:42:45
(UTC+00:00)

STARLINK-1666 - Pass Details

Date: 24 September 2020
Orbit: 378 x 381 km, 53.0° (Epoch: 30 October)

Event Time Altitude Azimuth Distance (km) Brightness Sun altitude
Exits shadow 01:36:18 23° 55° (NE) 921 5.5 -26.9°
Drops below altitude 10° 01:37:48 10° 67° (ENE) 1,483 6.8 -26.7°
Sets 01:39:57 0° 74° (ENE) 2,344 8.0 -26.5°
